Zurück zum Katalog

STARLINK-31455

AktivKommunikationVLEO
NORAD 59309·PAYLOAD·🇺🇸 United States

Gestartet Mar 24, 2024 von Cape Canaveral Space Force Station

Loading…

Nächste Überflüge (nächste 24 Stunden)

TLE

AktuellSource: CelesTrak SupGP

Epoche: Sep 14, 2026, 22:35 UTC

1 59309C 24056P   26257.94145833  .00028539  00000+0  10337-2 0  2571
2 59309  43.0023 238.7306 0001326 261.5700 139.0952 15.27563763    17

Verfolge STARLINK-31455 in Echtzeit mit AllMySat

Download on the App Store